My Meet Scores
Kate Klemenswicz, GymNasti - MyMeetScores.com
Top100 | Top Teams | Upcoming Meets | Completed Meets | Latest | Add Scores | Help| Support | Bookmark and Share

Kate Klemenswicz, GymNasti
Personal Bests
LevelVault BarsBeamFloorAA
39.7009.600 9.5009.50038.200
49.4259.525 9.4009.42537.100
59.4008.975 8.8758.67535.750
Meet Scores
Date Meet Team Session Level Division Vault Bars Beam Floor AA
2019-03-22 Illinois Gymnastics State Championships GymNasti 3 5 SR C 9.400 14T 8.825 14* 8.875 10 8.650 26T 35.750 17T
2019-02-15 Women's Midwest Open GymNasti 05 5 Senior A 9.000 7T 8.975 4 8.500 7 8.600 7 35.075 5
2019-02-08 IGI Chicago Style 2019 GymNasti 8 5 212 Lakeshore L5 D 9.000 7 8.575 13 8.100 18 8.575 14 34.250 15
2019-01-11 St Jude Benefit Meet GymNasti 9A 5 Sr B 9.100 8 8.725 7T 7.800 16 8.675 14 34.300 10
2018-12-07 St. Nick Invite 2018 GymNasti 1 5 SrB 9.350 2 8.650 7 8.625 7 8.025 17 34.650 9
2018-03-08 Level 4 & 5 State GymNasti All 4 Sr B 9.275 7 9.225 5T 9.400 9 9.050 12T 36.950 6
2018-02-23 Kinetic Classic GymNasti 6 4 Older 9.350 8T 9.200 24T 9.125 21 9.425 24T 37.100 9
2018-02-17 Women's Midwest Open GymNasti 12 4 Sr B 9.425 1 9.525 2T 8.750 13 9.275 2 36.975 3
2018-01-26 King Arthur Invitational GymNasti 2 4 Sr B 8.950 1 9.200 3 8.200 14T 9.050 3 35.400 1
2018-01-12 St Jude Benefit Meet GymNasti 2A 4 SrB 9.000 2T 9.425 3T 8.950 9 9.075 5 36.450 3T
2017-12-08 St. Nick Invite GymNasti 7A 4 SrA 9.200 5T 9.350 3 9.050 7 8.950 8 36.550 4T
2017-03-30 2017 Illinois Level 3 & 5 State GymNasti All 3 Sr C 9.700 3T 9.600 3 9.475 4 9.425 2T 38.200 3
2017-02-17 Midwest Open GymNasti 1A 3 JR C 9.550 2 9.500 1 9.000 7 9.350 5T 37.400 4
2017-02-10 IGI Chicago Style Gymnastics Meet GymNasti 212L 3 Sr 9.350 2 9.150 3 9.350 1 9.475 2 37.325 1
2017-01-20 2017 Bravo Classic GymNasti 10B 3 9+yrs 9.450 3 9.250 5 9.375 1T 9.300 4T 37.375 3
2016-12-09 St. Nick Invite GymNasti 5 3 All 9.400 24T 9.400 11T 9.500 11T 9.500 6T 37.800 10
2016-03-04 2016 Illinois Level 3 State Championships GymNasti 3 Junior-C 9.375 14 8.875 12 8.550 16 8.925 15 35.725 13
2016-02-19 Midwest Open Womens 2016 GymNasti 1A 3 9+ 9.500 7 8.550 19 8.900 9 8.775 17 35.725 17
2016-01-22 King Arthur Invitational GymNasti S13 3 Sr.A 9.000 16 8.575 15 8.225 15 8.475 15 34.275 16
2015-12-04 2015 Ultimate Wish Classic GymNasti 11B 3 All 8.850 44 9.025 30 8.750 35 8.875 55 35.500 41
Get your scores on
a t-shirt, pin, or hoodie

www.lazysuits.com